Regional Weather Roundup
Issued by NWS

Home | Current Version | Previous Version | Text Only | Print | Product List | Glossary On
Versions: 1 2 3 4 5 6 7 8 9 10 11 12 13 14 15 16 17 18 19 20 21 22 23 24 25 26 27 28 29 30 31 32 33 34 35 36 37 38 39 40 41 42 43 44 45 46 47 48 49 50
000
ASUS43 KBIS 301002
RWRND

NORTH DAKOTA REGIONAL WEATHER ROUNDUP
NATIONAL WEATHER SERVICE BISMARCK ND
500 AM CDT THU JUL 30 2015

NOTE: "FAIR" INDICATES FEW OR NO CLOUDS BELOW 12,000 FEET WITH NO
SIGNIFICANT WEATHER AND/OR OBSTRUCTIONS TO VISIBILITY.


NDZ001>003-009>011-017-301100-
NORTHWEST NORTH DAKOTA

CITY           SKY/WX    TMP DP  RH WIND       PRES   REMARKS
WILLISTON      PTCLDY    57  51  80 CALM      30.13F
MINOT          PTCLDY    62  51  67 W10       30.07S
MINOT AFB      MOCLDY    60  57  89 W12       30.08R
$$

NDZ018>021-031>035-040>046-301100-
SOUTHWEST NORTH DAKOTA

CITY           SKY/WX    TMP DP  RH WIND       PRES   REMARKS
BISMARCK       CLEAR     56  50  80 SW6       30.11S
DICKINSON      CLEAR     52  45  77 SW5       30.15R
GARRISON         N/A     54  50  86 NW8       30.11R
HETTINGER ARPT CLEAR     48  43  82 CALM      30.20R
$$

NDZ004>008-012>016-024-026-027-054-301100-
NORTHEAST NORTH DAKOTA

CITY           SKY/WX    TMP DP  RH WIND       PRES   REMARKS
GRAND FORKS    CLEAR     62  56  80 W8        29.95R
GRND FRKS AFB  CLEAR     63  56  79 W8        29.96R
DEVILS LAKE    CLEAR     61  50  67 W9        30.01R
$$

NDZ022-023-025-028>030-036>039-047>053-301100-
SOUTHEAST NORTH DAKOTA

CITY           SKY/WX    TMP DP  RH WIND       PRES   REMARKS
FARGO          CLEAR     60  55  83 W8        30.00R
JAMESTOWN      CLEAR     59  53  80 W7        30.06R
$$



USA.gov is the U.S. government's official web portal to all federal, state and local government web resources and services.